Regional Weather Roundup
Issued by NWS

Home | Current Version | Previous Version | Text Only | Print | Product List | Glossary Off
Versions: 1 2 3 4 5 6 7 8 9 10 11 12 13 14 15 16 17 18 19 20 21 22 23 24 25 26 27 28 29 30 31 32 33 34 35 36 37 38 39 40 41 42 43 44 45 46 47 48 49 50

000
ASUS43 KOAX 261302
RWRNE

WEATHER ROUNDUP FOR NEBRASKA
NATIONAL WEATHER SERVICE OMAHA NE
800 AM CDT WED JUL 26 2017

NOTES: SATELLITE DATA IS BEING USED TO AUGMENT CLOUD COVER ABOVE
       12000 FEET.
       "FAIR" INDICATES FEW OR NO CLOUDS BELOW 12,000 FEET WITH NO
       SIGNIFICANT WEATHER AND/OR OBSTRUCTIONS TO VISIBILITY.


NEZ001>004-019>022-054>056-261400-
NEBRASKA PANHANDLE

CITY           SKY/WX    TMP DP  RH WIND       PRES   REMARKS
SCOTTSBLUFF    CLOUDY    69  56  62 N8        30.17R
ALLIANCE       CLOUDY    67  60  78 N13       30.13R
CHADRON        CLOUDY    72  52  49 N7        30.14R
GORDON         CLOUDY    68  62  82 N7        30.12R
KIMBALL        CLOUDY    67  62  85 N9        30.21R
SIDNEY         CLOUDY    68  63  84 NE9       30.16R
$$

NEZ057>060-069>072-079>082-261400-
SOUTHWEST NEBRASKA

CITY           SKY/WX    TMP DP  RH WIND       PRES   REMARKS
NORTH PLATTE   CLOUDY    70  66  87 NE9       30.01R
IMPERIAL       CLOUDY    69  65  86 N14       30.03R
LEXINGTON      MOSUNNY   70  67  90 E8        29.97S
MCCOOK         CLOUDY    72  70  93 NE13      29.94R
OGALLALA       CLOUDY    71  65  80 N10       30.07R
$$

NEZ005>010-023>029-035>040-094-261400-
NORTH CENTRAL NEBRASKA

CITY           SKY/WX    TMP DP  RH WIND       PRES   REMARKS
VALENTINE      CLOUDY    71  65  81 N9        30.06R
AINSWORTH      CLOUDY    68  68 100 NW6       30.06R
BROKEN BOW     MOSUNNY   69  66  90 NE5       29.99R
O`NEILL        CLOUDY    69  69 100 N8        30.01S
ORD            CLOUDY    69  66  90 N5        29.96S
THEDFORD       CLOUDY    69  67  92 N5        30.05S
$$

NEZ041-046>049-061>064-073>077-083>087-261400-
SOUTH CENTRAL NEBRASKA

CITY           SKY/WX    TMP DP  RH WIND       PRES   REMARKS
GRAND ISLAND   CLOUDY    71  71 100 E7        29.95F FOG
AURORA         CLOUDY    71  71 100 E5        29.96S
HASTINGS       CLOUDY    71  69  93 NE8       29.96S
HEBRON         LGT RAIN  74  73  95 SE7       29.95F
HOLDREGE       CLOUDY    70  67  93 NE7       29.95R
KEARNEY        CLOUDY    69  68  96 E9        29.96R
YORK           CLOUDY    73  72  94 E6        29.97R FOG
$$

NEZ011>018-030>034-042>045-261400-
NORTHEAST NEBRASKA

CITY           SKY/WX    TMP DP  RH WIND       PRES   REMARKS
NORFOLK        LGT RAIN  72  70  93 S10       29.94S
ALBION         CLOUDY    73  71  95 E6        29.97R
BLAIR          RAIN      73  72  95 SE8       29.97F
COLUMBUS       CLOUDY    72  71  97 E6        29.95F
FREMONT        CLOUDY    75  74  95 S8        29.98R
TEKAMAH        CLOUDY    73  71  93 SE5       29.94S
WAYNE          CLOUDY    72  72  99 S8G16     29.96R
$$

NEZ050>053-065>068-078-088>093-261400-
SOUTHEAST NEBRASKA

CITY           SKY/WX    TMP DP  RH WIND       PRES   REMARKS
LINCOLN        LGT RAIN  75  73  93 SE7       29.98S
OMAHA EPPLEY   LGT RAIN  74  71  91 SE10      29.98S
BEATRICE       RAIN      74  73  97 SE16      29.98F
FALLS CITY     HVY RAIN  76  73  91 NW7       30.01R FOG
NEBRASKA CITY  RAIN      74  74 100 S5        30.03R
$$

NEZ044-045-051>053-067-261400-
OMAHA AREA

CITY           SKY/WX    TMP DP  RH WIND       PRES   REMARKS
OMAHA EPPLEY   LGT RAIN  74  71  91 SE10      29.98S
BLAIR          RAIN      73  72  95 SE8       29.97F
FREMONT        CLOUDY    75  74  95 S8        29.98R
MILLARD        RAIN      75  74  97 SE7       29.99R
OFFUTT AFB     SUNNY     73  72  95 SE8       29.98F
WAHOO          FAIR      74  74  97 SE10      29.97S FOG
$$




USA.gov is the U.S. government's official web portal to all federal, state and local government web resources and services.